This demonstration page uses our WeatherBlox Daily Observations layout. Learn more.

39.92423, -83.80882

Hourly Observations for May 30, 2016

Temp ( °F °C ) Dew Point ( °F °C ) Humidity (%) Winds ( mph kmh ) Pressure ( in mb ) Visibility ( mi km ) Precip ( " mm )
12:56 am 00:56 Mostly Cloudy 68 20 65 18.3 90 90 S 5 7 30.01 1016 10 16.0934 0 0
1:56 am 01:56 Clear 65 18.3 65 18.3 100 100 Calm 30.01 1016 10 16.0934 0 0
2:56 am 02:56 Mostly Clear 64 17.7 64 17.7 100 100 SW 3 6 30.01 1016 10 16.0934 0 0
3:56 am 03:56 Clear with Mist and Fog 63 17.2 63 17.2 100 100 Calm 30.01 1016 4 6.43736 0 0
4:56 am 04:56 Clear 64 17.7 64 17.7 100 100 S 5 7 30.03 1017 8 12.87472 0 0
5:56 am 05:56 Clear 64 17.7 64 17.7 100 100 SW 5 7 30.04 1017 7 11.26538 0 0
6:41 am 06:41 Sunny with Mist and Fog 63 17 63 17 100 100 SW 3 6 30.06 1018 2.5 4.02335 0 0
6:56 am 06:56 Sunny with Mist and Fog 63 17.2 63 17.2 100 100 WSW 5 7 30.05 1018 2.5 4.02335 0 0
7:36 am 07:36 Sunny with Mist and Fog 64 18 64 18 100 100 WSW 3 6 30.03 1017 3 4.82802 0 0
7:56 am 07:56 Sunny 65 18.3 65 18.3 100 100 W 5 7 30.04 1017 10 16.0934 0 0
8:56 am 08:56 Sunny 70 21.1 66 18.8 87 87 WNW 6 9 30.05 1018 10 16.0934 0 0
9:56 am 09:56 Sunny 75 23.8 65 18.3 71 71 NNW 5 7 30.05 1018 10 16.0934 0 0
10:56 am 10:56 Sunny 78 25.5 61 16.1 56 56 NW 9 15 30.05 1018 10 16.0934 0 0
11:56 am 11:56 Sunny 80 26.6 61 16.1 53 53 NNW 7 11 30.06 1018 10 16.0934 0 0
12:56 pm 12:56 Mostly Sunny 81 27.2 60 15.5 49 49 W 9 15 30.05 1018 10 16.0934 0 0
1:56 pm 13:56 Sunny 82 27.7 60 15.5 47 47 WNW 8 13 30.03 1017 10 16.0934 0 0
2:56 pm 14:56 Mostly Sunny 84 28.8 59 15 43 43 W 10 17 30.02 1017 10 16.0934 0 0
3:56 pm 15:56 Mostly Sunny 85 29.4 57 13.8 38 38 W 9 15 30.01 1016 10 16.0934 0 0
4:56 pm 16:56 Partly Cloudy 86 30 57 13.8 37 37 WNW 8 13 29.99 1016 10 16.0934 0 0
5:56 pm 17:56 Mostly Sunny 86 30 56 13.3 36 36 NW 8 13 29.98 1015 10 16.0934 0 0
6:56 pm 18:56 Sunny 85 29.4 58 14.4 40 40 W 6 9 29.97 1015 10 16.0934 0 0
7:56 pm 19:56 Sunny 82 27.7 62 16.6 51 51 W 5 7 29.97 1015 10 16.0934 0 0
8:56 pm 20:56 Sunny 76 24.4 62 16.6 62 62 Calm 29.97 1015 10 16.0934 0 0
9:56 pm 21:56 Clear 72 22.2 65 18.3 79 79 Calm 29.98 1015 10 16.0934 0 0
10:56 pm 22:56 Clear 70 21.1 65 18.3 84 84 Calm 29.99 1016 10 16.0934 0 0
11:56 pm 23:56 Clear 67 19.4 65 18.3 93 93 Calm 29.98 1015 10 16.0934 0 0

Powered by AerisWeather